Date,TemperatureHighF,TemperatureAvgF,TemperatureLowF,DewpointHighF,DewpointAvgF,DewpointLowF,HumidityHigh,HumidityAvg,HumidityLow,PressureMaxIn,PressureMinIn,WindSpeedMaxMPH,WindSpeedAvgMPH,GustSpeedMaxMPH,PrecipitationSumIn
2013-1-1,39,37,35,35,33,31,87,86,82,30.01,29.91,3,0,5,0.19
2013-1-2,44,35,31,32,27,24,86,73,56,30.13,29.98,3,0,4,0.00
2013-1-3,47,34,28,28,24,22,80,68,43,30.25,30.07,6,1,8,0.00
2013-1-4,43,35,31,29,26,24,74,69,56,30.32,30.21,8,3,12,0.00
2013-1-5,52,38,28,33,27,22,79,66,46,30.30,30.13,6,2,7,0.00
2013-1-6,44,40,33,34,30,22,71,66,61,30.25,29.98,10,4,13,0.00
2013-1-7,43,32,27,30,23,20,77,70,56,30.36,30.24,5,1,8,0.00
2013-1-20,49,40,34,23,20,18,55,46,35,30.13,30.05,1,0,2,0.00
2013-1-21,39,31,24,21,15,7,64,52,36,30.12,30.00,10,4,19,0.00
2013-1-22,32,23,18,8,5,3,54,46,33,30.31,30.12,6,3,10,0.00
2013-1-23,41,29,20,22,13,5,63,51,39,30.23,29.95,7,2,11,0.00
2013-1-24,39,30,24,21,11,6,64,46,29,30.43,29.99,8,4,14,0.00
2013-1-25,33,29,25,28,19,7,84,69,45,30.25,29.92,6,3,9,0.00
2013-1-26,46,33,27,30,25,21,83,72,50,30.30,30.06,4,1,6,0.00
2013-1-27,43,32,27,40,26,20,89,78,71,30.30,30.14,6,3,9,0.09
2013-1-28,55,51,43,52,46,39,90,84,74,30.15,30.01,10,5,16,0.05
2013-1-29,68,60,53,59,54,48,86,79,70,30.02,29.65,9,5,14,0.00
2013-1-30,68,56,36,60,51,29,91,83,73,29.65,29.33,14,6,26,0.75
2013-1-31,37,33,28,30,25,21,85,72,63,29.94,29.59,12,7,27,0.00
2013-2-1,29,22,15,22,11,5,77,62,52,30.36,29.94,8,3,14,0.00
2013-2-2,24,24,23,15,14,13,67,66,65,30.22,30.19,2,2,3,0.00
2013-2-3,33,32,30,27,25,22,79,76,72,30.04,29.94,8,4,10,0.00
2013-2-4,48,36,25,40,28,18,87,72,53,30.02,29.74,10,4,14,0.03
2013-2-5,54,46,43,40,38,34,87,75,57,29.93,29.77,8,4,12,0.00
2013-2-6,58,43,33,39,33,27,84,68,49,30.15,29.93,4,1,8,0.00
2013-2-7,65,50,40,42,36,31,73,59,41,30.06,29.79,6,2,9,0.00
2013-2-8,50,42,36,45,35,29,86,76,66,30.20,29.76,5,2,9,0.06
2013-2-9,57,41,32,32,28,24,74,60,38,30.31,30.09,7,3,11,0.00
2013-2-10,58,47,38,48,34,24,86,64,40,30.10,29.75,10,3,15,0.11
2013-2-11,56,51,40,52,39,29,87,64,43,30.01,29.76,13,6,20,0.00
2013-2-12,55,43,34,34,30,26,75,61,42,30.10,29.79,4,1,7,0.00
2013-2-13,42,40,35,35,32,29,82,73,63,29.85,29.63,4,1,5,0.02
2013-2-14,35,35,35,30,30,29,82,81,80,29.85,29.84,1,1,2,0.00
2013-2-25,56,45,34,34,29,25,68,56,43,30.03,29.93,10,7,13,0.00
2013-3-2,34,32,30,27,25,23,78,76,74,30.00,29.93,2,1,4,0.00
2013-3-3,41,32,29,26,24,20,81,70,51,30.00,29.94,4,2,8,0.00
2013-3-4,50,36,25,28,24,18,77,61,39,30.07,29.85,5,2,8,0.00
2013-3-5,48,42,32,45,36,28,92,81,57,29.85,29.47,13,4,20,0.61
2013-3-6,34,33,31,30,28,27,88,85,81,30.16,29.67,9,3,13,0.00
2013-3-7,37,35,33,31,29,28,82,79,74,30.26,30.14,2,0,4,0.00
2013-3-8,56,41,31,38,31,25,81,68,49,30.37,30.21,8,2,12,0.00
2013-3-9,67,48,34,41,34,27,75,60,36,30.21,29.99,6,2,9,0.00
2013-3-10,68,59,52,39,36,34,53,44,32,30.00,29.80,8,2,15,0.00
2013-3-11,63,60,55,52,46,36,88,64,38,29.82,29.67,9,5,15,0.50
2013-3-17,40,40,40,36,35,35,85,83,81,29.94,29.82,8,6,12,0.44
2013-3-18,40,40,39,37,36,35,88,87,85,29.82,29.69,8,5,9,0.00
2013-3-24,42,41,39,39,37,35,89,86,82,29.48,29.28,11,4,15,0.86
2013-3-25,39,34,33,35,31,29,90,87,81,29.87,29.38,10,7,15,0.00
2013-3-26,34,34,34,32,31,31,90,90,90,29.89,29.87,5,4,7,0.00
2013-3-27,44,41,38,30,28,27,71,60,52,30.20,30.18,4,1,5,0.00
2013-3-28,56,41,30,34,29,24,79,62,42,30.31,30.17,6,1,7,0.00
2013-3-29,52,43,33,41,33,26,77,67,45,30.23,30.11,5,2,9,0.00
2013-3-30,63,48,35,45,37,30,87,68,42,30.13,29.88,5,1,9,0.00
2013-3-31,59,52,49,50,46,42,89,80,67,29.88,29.72,7,3,10,0.08
2013-4-1,58,50,44,46,36,25,86,62,43,30.04,29.78,4,2,8,0.00
2013-4-2,56,44,33,28,24,22,65,48,31,30.23,30.02,6,1,9,0.00
2013-4-3,60,44,32,32,25,21,69,48,33,30.31,30.14,9,4,14,0.00
2013-4-4,52,46,40,41,28,21,75,51,42,30.15,29.89,9,3,12,0.00
2013-4-5,70,53,38,41,36,31,80,57,31,30.08,29.88,5,1,8,0.00
2013-4-6,73,57,43,42,37,32,68,49,32,30.16,29.95,6,2,10,0.00
2013-4-7,73,64,58,48,44,38,60,48,39,30.00,29.92,10,4,15,0.00
2013-4-8,75,64,53,55,50,43,71,60,47,30.02,29.93,11,3,16,0.00
2013-4-9,82,69,59,60,55,50,73,62,44,30.12,30.02,10,3,14,0.00
2013-4-10,66,64,64,56,56,55,74,72,70,30.05,29.99,0,0,2,0.00
2013-4-16,83,78,70,66,64,59,75,63,54,30.21,30.11,7,4,12,0.00
2013-4-27,59,56,53,53,49,44,88,77,68,30.31,29.99,6,2,14,0.11
2013-4-28,67,60,55,61,56,52,93,87,72,29.99,29.81,8,4,14,0.78
2013-4-29,64,58,54,56,53,50,90,84,70,29.99,29.89,3,1,5,0.00
2013-4-30,78,63,50,59,53,45,90,72,45,30.07,29.91,3,1,6,0.00
2013-5-1,83,69,56,63,58,51,86,68,47,30.23,30.06,5,1,8,0.00
2013-5-2,77,68,60,59,55,51,76,64,49,30.26,30.15,3,1,6,0.00
2013-5-3,77,67,60,61,56,53,78,67,51,30.15,29.99,6,2,12,0.00
2013-5-12,56,53,51,39,37,36,59,55,49,30.13,30.10,2,1,3,0.00
2013-5-13,64,54,44,43,38,36,77,56,38,30.18,30.07,5,2,9,0.00
2013-5-14,79,63,47,60,50,40,78,64,48,30.11,29.88,7,2,10,0.00
2013-5-15,84,74,66,61,58,53,77,58,39,30.06,29.92,8,4,11,0.00
2013-5-16,69,66,64,55,54,53,68,64,59,29.95,29.93,0,0,1,0.00
2013-5-19,82,78,72,71,70,67,84,76,64,29.99,29.93,3,2,4,0.00
2013-5-20,83,74,67,71,67,62,85,77,63,30.08,29.94,4,2,7,0.00
2013-5-21,84,73,66,69,66,63,92,81,55,29.99,29.86,12,2,19,0.25
2013-5-22,74,68,64,66,63,61,91,84,71,29.91,29.81,5,2,7,0.17
2013-5-23,71,66,61,63,60,56,91,83,64,30.04,29.84,5,2,9,0.14
2013-5-24,66,59,53,56,48,45,85,68,49,30.31,30.04,5,2,9,0.00
2013-5-25,55,53,51,48,46,44,78,76,74,30.29,30.26,1,0,2,0.00
2013-5-27,82,77,71,62,59,56,68,53,41,30.07,30.01,5,2,8,0.00
2013-5-28,83,75,68,64,61,58,78,62,47,30.12,30.00,8,2,10,0.00
2013-5-29,83,75,67,68,64,60,78,67,57,30.16,30.03,6,1,8,0.00
2013-5-30,86,76,67,70,65,61,81,68,55,30.19,30.04,4,1,6,0.00
2013-5-31,83,75,70,72,66,63,90,75,60,30.11,29.97,7,2,10,0.08
2013-6-1,81,75,70,71,67,63,89,77,65,30.01,29.82,8,3,17,0.03
2013-6-2,76,72,68,67,64,60,86,77,65,29.96,29.86,4,2,6,0.00
2013-6-3,74,69,63,62,59,55,82,71,57,30.05,29.92,3,1,8,0.00
2013-6-4,77,68,59,61,57,52,80,69,55,30.13,30.02,5,2,9,0.00
2013-6-5,81,71,63,68,62,54,82,72,57,30.04,29.88,3,1,6,0.00
2013-6-6,75,71,68,68,65,63,89,83,74,29.90,29.77,4,2,5,0.03
2013-6-7,75,69,64,65,62,60,88,80,61,29.87,29.76,4,1,10,0.00
2013-6-8,78,71,64,67,62,59,84,74,59,30.04,29.86,3,1,6,0.00
2013-6-9,78,68,64,69,64,58,94,86,71,30.07,29.94,4,1,5,0.52
2013-6-10,75,68,66,69,66,63,95,91,77,29.94,29.83,7,2,11,1.78
2013-6-11,80,72,64,70,66,61,93,82,64,30.05,29.92,3,1,6,0.00
2013-6-12,88,80,70,76,71,67,91,76,58,30.01,29.84,5,2,12,0.00
2013-6-13,82,81,80,72,72,71,76,72,70,29.86,29.79,7,5,11,0.00
2013-6-16,82,76,69,72,68,65,88,76,63,30.06,29.99,3,1,7,0.19
2013-6-17,82,73,68,74,68,64,91,84,73,30.02,29.90,7,1,13,0.14
2013-6-18,77,71,66,70,66,61,92,85,72,30.00,29.86,4,1,8,0.78
2013-6-19,78,70,63,69,64,60,91,81,65,30.10,29.95,4,1,8,0.00
2013-6-20,82,73,64,69,63,59,87,73,53,30.22,30.10,4,1,6,0.00
2013-6-21,84,75,66,72,66,61,86,74,58,30.24,30.12,3,1,4,0.00
2013-6-22,86,77,68,71,68,63,86,74,58,30.24,30.08,3,1,4,0.00
2013-6-23,86,77,69,71,67,63,83,72,54,30.21,30.07,3,1,6,0.00
2013-6-24,83,75,71,74,68,66,85,80,67,30.19,30.09,8,1,13,0.03
2013-6-25,87,78,70,75,71,66,89,78,62,30.11,29.97,4,1,6,0.00
2013-6-26,85,77,70,74,70,67,90,80,63,30.02,29.80,10,2,15,1.81
2013-6-27,81,74,69,76,70,66,93,89,79,29.87,29.79,8,2,10,0.91
2013-6-28,84,77,71,71,68,62,92,74,53,29.79,29.65,5,2,10,0.17
2013-6-29,68,68,67,64,64,64,88,87,87,29.65,29.65,0,0,0,0.00
2013-7-3,75,74,72,70,68,66,86,83,80,30.11,30.07,2,1,7,0.00
2013-7-4,72,70,68,66,65,64,90,85,81,30.15,30.09,1,0,3,0.03
2013-7-13,80,76,71,70,67,65,84,75,61,30.10,30.05,6,2,10,0.00
2013-7-14,86,78,69,75,71,65,87,79,66,30.21,30.08,6,1,7,0.02
2013-7-15,87,79,71,74,71,68,89,77,61,30.34,30.21,4,1,5,0.00
2013-7-16,89,80,72,76,72,68,89,78,58,30.36,30.24,3,0,6,0.00
2013-7-17,90,80,74,79,73,70,90,79,60,30.33,30.18,7,1,11,0.00
2013-7-18,87,79,74,78,73,67,89,80,64,30.21,30.05,8,1,9,0.00
2013-7-19,88,80,73,76,73,69,89,81,64,30.10,29.95,4,1,6,0.00
2013-7-20,88,81,75,75,73,71,88,77,59,30.01,29.89,6,2,9,0.00
2013-7-21,81,77,74,73,71,69,85,83,77,29.99,29.91,2,1,4,0.00
2013-8-10,79,76,73,75,73,71,93,90,86,30.12,30.03,2,0,3,0.28
2013-8-30,79,78,77,71,70,70,78,76,74,29.89,29.89,0,0,1,0.00
2013-9-1,82,80,79,70,69,67,74,68,63,29.87,29.81,5,2,7,0.00
2013-10-6,70,70,68,66,65,64,89,87,86,29.86,29.81,5,2,7,0.42
2013-12-7,32,32,32,26,26,26,79,78,78,30.36,30.34,2,1,5,0.00
2013-12-15,32,32,32,25,24,24,76,74,73,30.01,29.96,7,6,10,0.00
2013-12-29,46,42,36,39,36,30,81,79,75,30.02,29.83,6,3,8,0.00
2013-12-30,36,33,30,30,25,21,78,73,67,30.16,30.02,5,2,7,0.00
2013-12-31,35,28,26,21,19,18,72,68,56,30.36,30.10,6,4,10,0.00